Location: Centerville
(32.8776°N, 96.6203°W)
Time: 03:20:53
(UTC+00:00)

ADEOS II - Pass Details

Date: 17 June 2021
Orbit: 799 x 800 km, 98.6° (Epoch: 29 July)

Event Time Altitude Azimuth Distance (km) Brightness Sun altitude
Rises 07:53:02 0° 23° (NNE) 3,312 6.5 -30.1°
Reaches altitude 10° 07:55:34 10° 33° (NNE) 2,378 5.4 -29.9°
Maximum altitude 08:00:21 35° 98° (E) 1,268 3.2 -29.5°
Enters shadow 08:00:26 35° 100° (E) 1,268 3.1 -29.5°
